Location: Bishausen
(51.6334°N, 9.9631°E)
Time: 09:39:47
(UTC+00:00)

Resurs 1-4 Rocket - Pass Details

Date: 23 May 2024
Orbit: 798 x 813 km, 98.7° (Epoch: 23 June)

Event Time Altitude Azimuth Distance (km) Brightness Sun altitude
Rises 02:04:22 0° 12° (NNE) 3,321 6.6 -9.0°
Reaches altitude 10° 02:06:45 10° 8° (N) 2,386 5.6 -8.7°
Maximum altitude 02:11:52 54° 293° (WNW) 974 2.4 -8.2°
Drops below altitude 10° 02:16:56 10° 217° (SW) 2,370 3.9 -7.7°
Enters shadow 02:17:06 - 217° (SW) 2,429 3.9 -7.7°
